TimeCDT,TemperatureF,Dew PointF,Humidity,Sea Level PressureIn,VisibilityMPH,Wind Direction,Wind SpeedMPH,Gust SpeedMPH,PrecipitationIn,Events,Conditions,WindDirDegrees,DateUTC
12:15 AM,85.1,55.4,36,29.94,10.0,ESE,8.1,-,N/A,,Clear,120,2013-07-06 05:15:00
12:35 AM,84.9,55.9,37,29.95,10.0,SE,8.1,-,N/A,,Clear,130,2013-07-06 05:35:00
12:55 AM,84.4,56.7,39,29.95,10.0,SE,8.1,-,N/A,,Clear,130,2013-07-06 05:55:00
1:15 AM,83.7,57.2,40,29.95,10.0,SE,9.2,-,N/A,,Clear,140,2013-07-06 06:15:00
1:35 AM,82.9,57.6,42,29.95,10.0,SE,6.9,-,N/A,,Clear,130,2013-07-06 06:35:00
1:55 AM,82.4,58.1,43,29.95,10.0,SE,8.1,-,N/A,,Clear,130,2013-07-06 06:55:00
2:15 AM,81.3,58.6,46,29.95,10.0,SE,5.8,-,N/A,,Clear,130,2013-07-06 07:15:00
2:35 AM,80.8,59.0,47,29.95,10.0,SE,6.9,-,N/A,,Clear,130,2013-07-06 07:35:00
2:55 AM,80.6,59.2,48,29.95,10.0,SE,5.8,-,N/A,,Clear,140,2013-07-06 07:55:00
3:15 AM,80.1,59.4,49,29.95,10.0,SE,6.9,-,N/A,,Clear,140,2013-07-06 08:15:00
3:35 AM,79.9,59.5,50,29.94,10.0,SE,6.9,-,N/A,,Clear,130,2013-07-06 08:35:00
3:55 AM,79.5,59.5,50,29.94,10.0,SE,6.9,-,N/A,,Clear,130,2013-07-06 08:55:00
4:15 AM,79.0,59.9,52,29.94,10.0,SE,6.9,-,N/A,,Clear,130,2013-07-06 09:15:00
4:35 AM,78.8,60.4,53,29.93,10.0,SE,5.8,-,N/A,,Clear,130,2013-07-06 09:35:00
4:55 AM,78.3,61.0,55,29.93,10.0,Calm,Calm,-,N/A,,Clear,0,2013-07-06 09:55:00
5:15 AM,77.0,61.2,58,29.93,10.0,Calm,Calm,-,N/A,,Clear,0,2013-07-06 10:15:00
5:35 AM,74.7,61.2,63,29.94,10.0,Calm,Calm,-,N/A,,Clear,0,2013-07-06 10:35:00
5:55 AM,75.9,61.7,61,29.94,10.0,ESE,4.6,-,N/A,,Clear,110,2013-07-06 10:55:00
6:15 AM,76.1,61.7,61,29.95,10.0,ESE,3.5,-,N/A,,Clear,120,2013-07-06 11:15:00
6:35 AM,75.4,60.8,60,29.95,10.0,ESE,4.6,-,N/A,,Clear,110,2013-07-06 11:35:00
6:55 AM,75.4,61.0,61,29.96,10.0,ESE,3.5,-,N/A,,Clear,120,2013-07-06 11:55:00
7:15 AM,75.6,61.5,62,29.95,10.0,ESE,3.5,-,N/A,,Clear,110,2013-07-06 12:15:00
7:35 AM,76.1,62.1,62,29.95,10.0,ESE,4.6,-,N/A,,Clear,110,2013-07-06 12:35:00
7:55 AM,77.5,62.8,60,29.96,10.0,Calm,Calm,-,N/A,,Clear,0,2013-07-06 12:55:00
8:15 AM,79.2,63.5,59,29.97,10.0,East,3.5,-,N/A,,Clear,90,2013-07-06 13:15:00
8:35 AM,81.0,63.7,56,29.97,10.0,ESE,3.5,-,N/A,,Clear,110,2013-07-06 13:35:00
8:55 AM,85.1,63.1,48,29.97,10.0,South,8.1,-,N/A,,Clear,170,2013-07-06 13:55:00
9:15 AM,86.4,62.4,45,29.96,10.0,South,6.9,-,N/A,,Clear,180,2013-07-06 14:15:00
9:35 AM,87.8,61.2,41,29.96,10.0,SSW,10.4,-,N/A,,Clear,200,2013-07-06 14:35:00
9:55 AM,89.2,60.3,38,29.95,10.0,SSE,10.4,17.3,N/A,,Clear,160,2013-07-06 14:55:00
10:15 AM,90.0,59.0,35,29.95,10.0,SSE,11.5,-,N/A,,Clear,150,2013-07-06 15:15:00
10:35 AM,91.0,58.8,34,29.96,10.0,SSE,10.4,16.1,N/A,,Clear,150,2013-07-06 15:35:00
10:55 AM,91.4,58.6,33,29.96,10.0,SSE,12.7,17.3,N/A,,Clear,150,2013-07-06 15:55:00
11:15 AM,92.3,58.6,32,29.96,10.0,South,9.2,16.1,N/A,,Clear,170,2013-07-06 16:15:00
11:35 AM,93.6,58.3,31,29.95,10.0,South,8.1,-,N/A,,Clear,170,2013-07-06 16:35:00
11:55 AM,93.4,58.5,31,29.95,10.0,SSE,11.5,18.4,N/A,,Clear,150,2013-07-06 16:55:00
12:15 PM,94.3,57.7,29,29.95,10.0,ESE,11.5,-,N/A,,Clear,120,2013-07-06 17:15:00
12:35 PM,94.8,56.8,28,29.94,10.0,SE,6.9,-,N/A,,Clear,140,2013-07-06 17:35:00
12:55 PM,95.9,57.0,27,29.93,10.0,SE,10.4,-,N/A,,Clear,130,2013-07-06 17:55:00
1:15 PM,96.4,55.8,25,29.93,10.0,ESE,10.4,21.9,N/A,,Clear,120,2013-07-06 18:15:00
1:35 PM,96.4,56.3,26,29.92,10.0,SE,9.2,17.3,N/A,,Clear,140,2013-07-06 18:35:00
1:55 PM,97.7,54.9,24,29.92,10.0,ESE,12.7,20.7,N/A,,Clear,120,2013-07-06 18:55:00
2:15 PM,98.2,53.6,22,29.91,10.0,SE,11.5,21.9,N/A,,Clear,140,2013-07-06 19:15:00
2:35 PM,97.2,52.5,22,29.91,10.0,SE,11.5,19.6,N/A,,Clear,140,2013-07-06 19:35:00
2:55 PM,96.8,54.1,24,29.90,10.0,ESE,10.4,-,N/A,,Clear,110,2013-07-06 19:55:00
3:15 PM,97.7,54.0,23,29.90,10.0,SE,16.1,21.9,N/A,,Clear,130,2013-07-06 20:15:00
3:35 PM,98.2,54.9,23,29.90,10.0,SE,11.5,21.9,N/A,,Clear,130,2013-07-06 20:35:00
3:55 PM,98.6,53.6,22,29.89,10.0,SSE,10.4,-,N/A,,Scattered Clouds,150,2013-07-06 20:55:00
4:15 PM,98.1,53.6,22,29.88,10.0,SE,9.2,-,N/A,,Scattered Clouds,130,2013-07-06 21:15:00
4:35 PM,98.4,53.2,22,29.87,10.0,SE,6.9,17.3,N/A,,Scattered Clouds,130,2013-07-06 21:35:00
4:55 PM,98.8,53.6,22,29.87,10.0,ESE,11.5,20.7,N/A,,Scattered Clouds,110,2013-07-06 21:55:00
5:15 PM,98.8,53.6,22,29.86,10.0,SE,12.7,19.6,N/A,,Clear,140,2013-07-06 22:15:00
5:35 PM,97.9,53.8,23,29.86,10.0,SE,10.4,17.3,N/A,,Clear,140,2013-07-06 22:35:00
5:55 PM,97.5,53.4,23,29.85,10.0,ESE,13.8,19.6,N/A,,Clear,120,2013-07-06 22:55:00
6:15 PM,97.7,52.7,22,29.85,10.0,SE,10.4,16.1,N/A,,Clear,130,2013-07-06 23:15:00
6:35 PM,96.8,52.7,23,29.85,10.0,ESE,9.2,19.6,N/A,,Clear,120,2013-07-06 23:35:00
6:55 PM,96.8,52.7,23,29.86,10.0,East,10.4,-,N/A,,Clear,100,2013-07-06 23:55:00
7:15 PM,95.9,52.9,23,29.86,10.0,ESE,9.2,-,N/A,,Clear,110,2013-07-07 00:15:00
7:35 PM,95.4,53.1,24,29.86,10.0,ESE,10.4,-,N/A,,Clear,110,2013-07-07 00:35:00
7:55 PM,94.6,53.8,25,29.87,10.0,ESE,9.2,-,N/A,,Clear,110,2013-07-07 00:55:00
8:15 PM,94.1,53.6,25,29.87,10.0,ESE,9.2,-,N/A,,Clear,110,2013-07-07 01:15:00
8:35 PM,92.8,54.3,27,29.88,10.0,ESE,8.1,-,N/A,,Clear,120,2013-07-07 01:35:00
8:55 PM,91.6,53.8,28,29.88,10.0,ESE,8.1,-,N/A,,Clear,120,2013-07-07 01:55:00
9:15 PM,90.5,54.5,29,29.89,10.0,ESE,6.9,-,N/A,,Clear,110,2013-07-07 02:15:00
9:35 PM,89.1,55.4,32,29.90,10.0,ESE,4.6,-,N/A,,Clear,120,2013-07-07 02:35:00
9:55 PM,88.7,55.6,32,29.91,10.0,ESE,4.6,-,N/A,,Clear,120,2013-07-07 02:55:00
10:15 PM,88.0,55.0,32,29.92,10.0,ESE,5.8,-,N/A,,Clear,120,2013-07-07 03:15:00
10:35 PM,87.1,56.1,35,29.92,10.0,East,5.8,-,N/A,,Clear,100,2013-07-07 03:35:00
10:55 PM,86.2,57.2,37,29.93,10.0,East,3.5,-,N/A,,Clear,90,2013-07-07 03:55:00
11:15 PM,84.6,56.5,38,29.94,10.0,Calm,Calm,-,N/A,,Clear,0,2013-07-07 04:15:00
11:35 PM,84.4,57.2,39,29.95,10.0,East,4.6,-,N/A,,Clear,100,2013-07-07 04:35:00
11:55 PM,84.0,57.7,41,29.95,10.0,East,3.5,-,N/A,,Clear,100,2013-07-07 04:55:00